This is the latest recevied weather packets stored in our database for station/object KD2SIG. If no packets are shown the sender has not sent any weather packets the latest 10 day(s).
| Time | Temp. | Humidity | Pressure | Rain* | Wind** | Luminosity | Snow |
|---|---|---|---|---|---|---|---|
| 1777825681 | 10° C | 46% | 1012.9 hPa | 0 mm | - | 723 W/m² | - |
| 1777825380 | 10° C | 44% | 1012.8 hPa | 0 mm | - | 715 W/m² | - |
| 1777825076 | 8.89° C | 45% | 1013 hPa | 0 mm | - | 713 W/m² | - |
| 1777824772 | 8.89° C | 43% | 1013 hPa | 0 mm | - | 692 W/m² | - |
| 1777824469 | 9.44° C | 46% | 1013 hPa | 0 mm | - | 672 W/m² | - |
| 1777824165 | 9.44° C | 49% | 1012.8 hPa | 0 mm | - | 678 W/m² | - |
| 1777823861 | 10° C | 49% | 1013.1 hPa | 0 mm | - | 706 W/m² | - |
| 1777823559 | 8.89° C | 50% | 1012.9 hPa | 0 mm | - | 692 W/m² | - |
| 1777823256 | 9.44° C | 46% | 1013.1 hPa | 0 mm | - | 691 W/m² | - |
| 1777822954 | 9.44° C | 47% | 1013.3 hPa | 0 mm | - | 690 W/m² | - |
| 1777822652 | 9.44° C | 48% | 1013.3 hPa | 0 mm | - | 717 W/m² | - |
| 1777822349 | 9.44° C | 50% | 1013.2 hPa | 0 mm | - | 712 W/m² | - |
| 1777822046 | 8.89° C | 50% | 1013.3 hPa | 0 mm | - | 711 W/m² | - |
| 1777821745 | 8.89° C | 51% | 1013.4 hPa | 0 mm | - | 744 W/m² | - |
| 1777821441 | 8.89° C | 50% | 1013.5 hPa | 0 mm | - | 753 W/m² | - |
| 1777821138 | 8.89° C | 50% | 1013.3 hPa | 0 mm | - | 775 W/m² | - |
| 1777820835 | 8.33° C | 48% | 1013.4 hPa | 0 mm | - | 429 W/m² | - |
| 1777820531 | 8.89° C | 48% | 1013.6 hPa | 0 mm | - | 645 W/m² | - |
| 1777820228 | 8.89° C | 49% | 1013.4 hPa | 0 mm | - | 727 W/m² | - |
| 1777819926 | 8.33° C | 50% | 1013.5 hPa | 0 mm | - | 701 W/m² | - |
| 1777819623 | 8.33° C | 48% | 1013.6 hPa | 0 mm | - | 615 W/m² | - |
| 1777819321 | 8.33° C | 51% | 1013.5 hPa | 0 mm | - | 635 W/m² | - |
| 1777819017 | 7.78° C | 50% | 1013.7 hPa | 0 mm | - | 478 W/m² | - |
| 1777818714 | 7.78° C | 52% | 1013.6 hPa | 0 mm | - | 433 W/m² | - |
| 1777818411 | 7.22° C | 50% | 1013.7 hPa | 0 mm | - | 383 W/m² | - |
* Rain latest hour (hover to see other rain measurements)
** Current wind speed in m/s (hover to see current wind gust speed)